KD8PH Weather Reports


Display with metric or nautical units.
time (UTC)temp
F
wind
direction
speed
MPH
gust
MPH
rain 1hr
in
rain 24hr
in
rain mn
in
humidity
%
barometer
mb
20260509003555 65 225 6.0 11.0 0.00 0.00 0.00 68 1011.3
20260509002539 66 225 5.0 8.0 0.00 0.00 0.00 67 1011.4
20260509001549 66 248 5.0 10.0 0.00 0.00 0.00 66 1011.7
20260509000555 66 225 6.0 13.0 0.00 0.00 0.00 63 1011.6
20260508235543 66 248 4.0 11.0 0.00 0.00 0.00 62 1011.7
20260508234554 66 225 7.0 12.0 0.00 0.00 0.00 60 1011.7
20260508233553 67 225 6.0 12.0 0.00 0.00 0.00 61 1011.7
20260508232555 67 225 9.0 14.0 0.00 0.00 0.00 59 1011.6
20260508231539 67 225 8.0 14.0 0.00 0.00 0.00 61 1011.5
20260508230541 67 225 8.0 12.0 0.00 0.00 0.00 62 1011.5
20260508225537 67 225 7.0 10.0 0.00 0.00 0.00 59 1011.7
20260508224538 67 225 8.0 12.0 0.00 0.00 0.00 62 1011.8
20260508223545 68 225 6.0 11.0 0.00 0.00 0.00 63 1011.6
20260508222544 68 225 6.0 12.0 0.00 0.00 0.00 57 1011.7
20260508221536 68 248 6.0 11.0 0.00 0.00 0.00 56 1011.7
20260508220541 68 225 7.0 11.0 0.00 0.00 0.00 55 1011.8
20260508215536 68 225 7.0 10.0 0.00 0.00 0.00 55 1012.0
20260508214541 68 225 9.0 13.0 0.00 0.00 0.00 55 1011.9
20260508213543 69 225 8.0 14.0 0.00 0.00 0.00 57 1011.8
20260508212537 69 225 8.0 13.0 0.00 0.00 0.00 56 1011.8
20260508211539 69 225 7.0 15.0 0.00 0.00 0.00 54 1011.8
20260508210535 69 225 7.0 13.0 0.00 0.00 0.00 53 1011.7
20260508205542 69 203 4.0 11.0 0.00 0.00 0.00 58 1011.7
20260508204542 69 225 4.0 7.0 0.00 0.00 0.00 54 1011.9
20260508203539 69 158 1.0 4.0 0.00 0.00 0.00 50 1011.8
20260508202546 69 158 1.0 5.0 0.00 0.00 0.00 49 1012.0
20260508201600 69 180 2.0 5.0 0.00 0.00 0.00 51 1012.3
20260508200537 69 180 1.0 5.0 0.00 0.00 0.00 49 1012.3
20260508195605 69 158 1.0 8.0 0.00 0.00 0.00 50 1012.3
20260508194541 69 180 2.0 6.0 0.00 0.00 0.00 51 1012.1
20260508193546 69 135 3.0 7.0 0.00 0.00 0.00 51 1012.2
20260508192540 69 113 2.0 4.0 0.00 0.00 0.00 49 1012.4
20260508191540 68 135 3.0 7.0 0.00 0.00 0.00 50 1012.6
20260508190554 68 135 2.0 4.0 0.00 0.00 0.00 51 1012.9
20260508185544 68 135 2.0 7.0 0.00 0.00 0.00 48 1012.9
20260508184546 68 23 2.0 6.0 0.00 0.00 0.00 50 1013.1
20260508183540 68 113 2.0 4.0 0.00 0.00 0.00 53 1013.2
20260508182551 69 0.0 3.0 0.00 0.00 0.00 48 1013.5
20260508181535 68 0.0 2.0 0.00 0.00 0.00 48 1013.8
20260508180539 68 113 1.0 2.0 0.00 0.00 0.00 48 1014.0
20260508175536 67 158 1.0 4.0 0.00 0.00 0.00 50 1014.2
20260508174539 67 180 1.0 3.0 0.00 0.00 0.00 49 1014.0
20260508173540 67 45 2.0 6.0 0.00 0.00 0.00 49 1014.3
20260508172548 67 135 2.0 5.0 0.00 0.00 0.00 51 1014.6
20260508171539 67 248 1.0 5.0 0.00 0.00 0.00 49 1014.7
20260508170543 66 135 2.0 5.0 0.00 0.00 0.00 51 1014.6
20260508165553 66 203 2.0 7.0 0.00 0.00 0.00 51 1015.4
20260508164549 66 135 1.0 3.0 0.00 0.00 0.00 53 1015.3
20260508163550 66 90 1.0 3.0 0.00 0.00 0.00 55 1015.4
20260508162559 65 135 1.0 2.0 0.00 0.00 0.00 53 1015.5
20260508161543 65 225 1.0 3.0 0.00 0.00 0.00 56 1015.4
20260508160541 64 135 2.0 4.0 0.00 0.00 0.00 55 1015.6
20260508155534 64 135 3.0 5.0 0.00 0.00 0.00 58 1015.7
20260508154543 64 135 2.0 4.0 0.00 0.00 0.00 58 1016.0
20260508153537 63 113 2.0 4.0 0.00 0.00 0.00 63 1016.0
20260508152540 63 113 2.0 3.0 0.00 0.00 0.00 64 1016.2
20260508151538 62 135 1.0 3.0 0.00 0.00 0.00 67 1016.2
20260508150539 61 113 2.0 6.0 0.00 0.00 0.00 70 1016.2
20260508145536 61 45 2.0 5.0 0.00 0.00 0.00 71 1016.3
20260508144535 61 135 2.0 4.0 0.00 0.00 0.00 71 1016.6
20260508143536 61 113 1.0 2.0 0.00 0.00 0.00 72 1016.7
20260508142534 60 45 2.0 5.0 0.00 0.00 0.00 74 1016.7
20260508141550 60 135 2.0 6.0 0.00 0.00 0.00 74 1016.8
20260508140544 60 45 2.0 4.0 0.00 0.00 0.00 76 1016.8
20260508135532 59 90 2.0 5.0 0.00 0.00 0.00 76 1016.8
20260508134535 59 45 2.0 4.0 0.00 0.00 0.00 78 1016.6
20260508133545 59 45 2.0 5.0 0.00 0.00 0.00 77 1016.6
20260508132539 58 45 2.0 6.0 0.00 0.00 0.00 79 1016.6
20260508131538 58 113 3.0 6.0 0.00 0.00 0.00 79 1016.6
20260508130540 58 90 3.0 7.0 0.00 0.00 0.00 83 1016.5
20260508125535 57 113 5.0 8.0 0.00 0.00 0.00 84 1016.5
20260508124533 57 45 3.0 6.0 0.00 0.00 0.00 85 1016.5
20260508123537 56 45 3.0 5.0 0.00 0.00 0.00 85 1016.6
20260508122534 55 45 1.0 4.0 0.00 0.64 0.00 84 1016.8
20260508121546 54 23 2.0 4.0 0.00 0.64 0.00 85 1016.6
20260508120548 54 23 2.0 3.0 0.00 0.64 0.00 85 1016.5
20260508115547 53 45 2.0 3.0 0.00 0.64 0.00 87 1016.4
20260508114548 53 0.0 2.0 0.00 0.64 0.00 87 1016.3
20260508113538 53 23 1.0 2.0 0.00 0.64 0.00 86 1016.2
20260508112541 53 23 1.0 2.0 0.00 0.64 0.00 86 1016.0
20260508111536 53 23 1.0 2.0 0.00 0.64 0.00 85 1015.8
20260508110550 53 45 2.0 5.0 0.00 0.64 0.00 85 1015.6
20260508105543 53 23 2.0 3.0 0.00 0.64 0.00 84 1015.4
20260508104546 53 23 2.0 4.0 0.00 0.64 0.00 85 1015.3
20260508103542 53 23 2.0 4.0 0.00 0.64 0.00 84 1015.3
20260508102543 53 23 3.0 5.0 0.00 0.64 0.00 84 1015.1
20260508101533 53 23 2.0 4.0 0.00 0.65 0.00 84 1015.0
20260508100536 53 23 2.0 5.0 0.00 0.65 0.00 85 1014.9
20260508095537 53 23 2.0 4.0 0.00 0.65 0.00 86 1014.6
20260508094539 53 23 2.0 4.0 0.00 0.65 0.00 87 1014.5
20260508093544 54 23 2.0 4.0 0.00 0.65 0.00 86 1014.3
20260508092537 54 23 2.0 4.0 0.00 0.65 0.00 86 1014.3
20260508091535 53 23 2.0 4.0 0.00 0.65 0.00 87 1014.3
20260508090538 53 23 2.0 3.0 0.00 0.65 0.00 88 1014.4
20260508085542 53 23 2.0 3.0 0.00 0.65 0.00 90 1014.3
20260508084535 52 23 1.0 3.0 0.00 0.65 0.00 91 1014.3
20260508083537 52 45 1.0 2.0 0.00 0.65 0.00 92 1014.1
20260508082536 52 0.0 1.0 0.00 0.65 0.00 91 1014.1
20260508081536 52 0 1.0 2.0 0.00 0.65 0.00 91 1014.0
20260508080557 52 0 2.0 3.0 0.00 0.65 0.00 91 1014.1
20260508075538 52 0.0 0.0 0.00 0.65 0.00 91 1013.9
20260508074535 52 0.0 0.0 0.00 0.66 0.00 91 1013.9
20260508073535 52 0.0 0.0 0.00 0.66 0.00 91 1014.0
20260508072553 53 0.0 0.0 0.00 0.66 0.00 91 1014.0
20260508071544 53 338 1.0 2.0 0.00 0.66 0.00 91 1013.9
20260508070546 53 338 1.0 2.0 0.00 0.66 0.00 90 1014.0
20260508065547 53 315 1.0 2.0 0.00 0.66 0.00 91 1014.2
20260508064535 53 0.0 1.0 0.00 0.66 0.00 91 1014.3
20260508063538 53 293 1.0 2.0 0.00 0.66 0.00 91 1014.3
20260508062540 53 315 2.0 3.0 0.00 0.66 0.00 90 1014.4
20260508061536 53 0.0 2.0 0.00 0.66 0.00 90 1014.3
20260508060536 54 0 1.0 2.0 0.00 0.66 0.00 90 1014.4
20260508055536 54 315 1.0 2.0 0.00 0.66 0.00 90 1014.4
20260508054537 54 0.0 2.0 0.00 0.66 0.00 90 1014.4
20260508053536 54 338 1.0 2.0 0.00 0.67 0.00 90 1014.3
20260508052548 55 0.0 2.0 0.00 0.67 0.00 91 1014.4
20260508051539 54 338 1.0 2.0 0.00 0.67 0.00 90 1014.2
20260508050549 55 338 2.0 3.0 0.00 0.67 0.00 90 1014.2
20260508045550 55 338 1.0 2.0 0.00 0.67 0.67 91 1014.2
20260508044536 55 0.0 1.0 0.00 0.67 0.67 90 1014.0
20260508043534 55 338 1.0 3.0 0.00 0.67 0.67 90 1014.2
20260508042545 56 0.0 0.0 0.00 0.67 0.67 90 1014.2
20260508041539 56 0.0 0.0 0.00 0.67 0.67 90 1014.1
20260508040543 56 0.0 0.0 0.00 0.67 0.67 90 1014.1
20260508035538 56 0.0 0.0 0.00 0.68 0.67 89 1014.1
20260508034534 56 338 1.0 2.0 0.00 0.68 0.67 89 1014.1
20260508033543 56 0.0 1.0 0.00 0.68 0.67 88 1014.2
20260508032540 57 315 1.0 2.0 0.00 0.68 0.67 88 1014.1
20260508031548 57 0.0 2.0 0.00 0.68 0.67 88 1014.0
20260508030545 57 0.0 1.0 0.00 0.68 0.67 88 1013.9
20260508025538 57 0.0 1.0 0.00 0.68 0.67 88 1014.0
20260508024540 58 0.0 1.0 0.00 0.68 0.67 88 1014.0
20260508023549 58 0.0 1.0 0.00 0.68 0.67 87 1013.7
20260508022537 58 315 1.0 1.0 0.00 0.68 0.67 86 1013.8
20260508021535 58 315 1.0 1.0 0.00 0.69 0.67 85 1013.5
20260508020534 58 315 1.0 2.0 0.00 0.69 0.67 85 1013.8
20260508015534 59 315 1.0 2.0 0.00 0.69 0.67 85 1013.7
20260508014544 59 293 1.0 2.0 0.00 0.69 0.67 84 1013.6
20260508013540 60 0.0 1.0 0.00 0.69 0.67 84 1013.4
20260508012535 60 0.0 1.0 0.00 0.69 0.67 84 1013.2
20260508011535 61 315 1.0 2.0 0.00 0.69 0.67 83 1013.0
20260508010541 61 315 1.0 2.0 0.00 0.70 0.67 82 1012.9
20260508005536 62 315 1.0 2.0 0.00 0.70 0.67 81 1012.8
20260508004540 62 315 1.0 2.0 0.00 0.70 0.67 78 1012.9